Погода в Дальнереченске

Погода в Дальнереченске : погода сейчас, прогноз погоды и архив. Всё, что Вы хотите узнать о погоде в Дальнереченске!

Хотите узнать прогноз погоды в Дальнереченске? Тогда Вам сюда: Погода в Дальнереченске

Поиск расширенной информации на нашем сайте:

Другие новости

Новости СМИ2

Главная страница сайта

Новости сайта

02.10.2013

Напоминаем, что на нашем новом сайте вы можете получить высокодетализированные прогнозы погоды по пунктам России, СНГ и мира (включающие важные для авиации метеовеличины, такие как направление и скорость ветра, видимость, явления погоды, количество и форма облачности, нижняя и верхняя граница облачности), а также ознакомиться с разнообразными материалами по авиационной метеорологии и подборкой полезных ссылок на эту тему.

Сайт Метеоцентр.Азия посвящён разработке технологий оптимизации авиаметеорологического обслуживания, включая проектирование и перспективное создание нескольких автоматизированных авиаметеорологических систем:
- система выпуска высокодетальных прогностических карт явлений погоды для нижнего воздушного пространства по России и ближнему зарубежью;
- система верификации прогнозов TAF (выпускаемых синоптиками официальных АМСГ РФ и ближнего зарубежья) и AUTOTAF (выпускаемых сайтом Метеоцентр.Азия) - выявление ошибок, онлайн-сопоставление с фактической погодой METAR, автоматическое внесение коррективов в прогнозы при резком отклонении фактической погоды от прогноза, подсчёт оправдываемости прогнозов по элементам и в целом;
- система обработки, анализа и отображения авиаметеорологической информации для применения провайдерами метеорологической информации.

Рекомендуем: http://vibromash.com/ трос сантехнический для прочистки канализации купить.

Погода в Дальнереченске - сегодня

Время (UTC), дата Ветер
(°,м/с) 
Видим.   Явления Облачность Т
(°С)
Тd
(°С)
f(%) Тe
(°С)
Pmin
(гПа)
dP
(гПа)
Po
(мм)
O2
(г/м3)
Тmin Tmax R s Состояние
почвы
18 18.01.17 240 (ЮЗ) 10 км    ясно 
-17.1 -19.1 84 -22  1027.8  0.7  761  328           
21 18.01.17 240 (ЮЗ) 10 км    ясно 
-19 -21.1 83 -23  1027.6  -0.3  760  331  -19.1      28  равномерный
сухой снег
100% 
00 19.01.17 250 (З) 20000 м    6/0 средняя, верхняя 
[Ac As|Ci fib]
-18.6 -20.9 82 -19  1027.7  0.2  760  330  -19.3         
03 19.01.17 230 (ЮЗ) 20000 м    4/0 верхняя 
[Ci fib]
-14.5 -16.7 83 -18  1026.7  -0.8  760  325           
06 19.01.17 260 (З) 20000 м    8/0 верхняя 
[Ci fib]
-11.7 -18.1 59 -14  1025  -1.5  759  321           
09 19.01.17 260 (З) 10 км    3/0 верхняя 
[Ci fib]
-16.9 -19.9 78 -19  1025.3  759  327    -11.7       
12 19.01.17 260 (З) 10 км    ясно 
-17.7 -19.6 85 -18  1025.1  -0.3  758  328           
15 19.01.17 260 (З) 10 км    ясно 
-18.5 -20.7 83 -21  1024.6  -0.5  758  329           
18 19.01.17 200 (Ю) 10 км    ясно 
-20.9 -23.3 81 -21  1023.9  -0.8  758  332           
21 19.01.17 240 (ЮЗ) 10 км    6/0 верхняя 
[Ci fib]
-21.7 -24.2 80 -22  1023.9  758  333  -23      28  равномерный
сухой снег
100% 
00 20.01.17 240 (ЮЗ) 2000 м  дымка  10/0 верхняя 
[Ci fib]
-22.7 -25.4 79 -23  1024.4  0.5  758  335  -23.1         
03 20.01.17 220 (ЮЗ) 20000 м    5/0 верхняя 
[Ci fib]
-17.1 -19.8 80 -20  1024.3  0.2  758  327           
06 20.01.17 270 (З) 20000 м    10/0 верхняя 
[Ci fib]
-14.2 -22.3 50 -16  1024.8  0.7  758  324           
09 20.01.17 270 (З) 10 км    3/0 верхняя 
[Ci fib]
-18 -23.5 62 -21  1025.9  0.9  759  329    -14       
12 20.01.17 250 (З) 10 км    ясно 
-20.7 -24.3 73 -24  1027.5  1.5  760  333           
15 20.01.17 250 (З) 10 км    ясно 
-21.1 -23.9 78 -24  1028  0.4  761  334           
18 20.01.17 230 (ЮЗ) 10 км    1/0 верхняя 
[Ci fib]
-21 -23.9 77 -21  1028.2  0.2  761  334           
21 20.01.17 тихо ()   10 км    ясно 
-23.7 -26.1 80 -24  1028.7  0.4  761  338  -23.7      28  равномерный
сухой снег
100% 
00 21.01.17 тихо ()   10 км    4/0 верхняя 
[Cc]
-26.2 -29.2 76 -26  1029.7  0.9  762  341  -26.6         
03 21.01.17 090 (В) 10 км    ясно 
-20.8 -24.8 70 -21  1028.4  -1  761  334           
06 21.01.17 090 (В) 20000 м    10/0 верхняя 
[Cs]
-17 -22 65 -17  1025.8  -2.3  759  328           
09 21.01.17 050 (СВ) 10 км    10/0 верхняя 
[Cs]
-18.7 -22.7 71 -19  1025.5  -0.4  759  330    -16.9       
12 21.01.17 360 (С) 10 км    10/0 средняя 
[As op]
-18.5 -22.3 72 -19  1024.6  -0.9  758  329           
15 21.01.17 360 (С) 10 км    10/0 средняя 
[As op]
-18.9 -22.4 74 -19  1023.8  -0.8  758  330           
18 21.01.17 360 (С) 10 км    10/0 средняя 
[As op]
-19.5 -22.5 77 -20  1023.3  -0.6  757  330           
Время (UTC), дата Ветер
(°,м/с) 
Видим.   Явления Облачность Т
(°С)
Тd
(°С)
f(%) Тe
(°С)
Pmin
(гПа)
dP
(гПа)
Po
(мм)
O2
(г/м3)
Тmin Tmax R s Состояние
почвы

Для получения пояснительной информации подведите курсор к названию столбца.

ПОГОДА в Дальнереченске - архив

Всё, что Вы хотите узнать о погоде в Дальнереченске - удобно и подробно!

Выберите нужную дату (начиная с 1 января 2015* года) и нажмите кнопку "Найти".
Будут отображены архивные сводки погоды по пункту Дальнереченск, начиная с указанной даты.


Отображать данные в формате CSV (для использования в таблицах Excel)


Внимание! Наш архив погоды предназначен исключительно для личного некоммерческого использования в познавательных целях. Если Вам необходимы официальные справки о состоянии погоды (для производственных, юридических, коммерческих и т.п. целей), обращайтесь в органы Росгидромета.

*Примечание: данная дата относится к архиву по метеостанциям СССР (Россия, СНГ, Балтия).
Архив по метеостанциям Зарубежной Европы и Азии (кроме Китая) хранится 10 дней, по другим регионам земного шара (Китай, Африка, Америка, Австралия, Океания) - 1 день.

Дальнереченск - район местоположения метеостанции


Название, широта, долгота, высота метеостанции:
Дальнереченск 45.9°ш. 133.7°д. 101 м над ур. моря [Российская Федерация]

Дополнительная информация

В oтличие oт бoльшинства пoгoдных сайтoв мы публикуем пoдрoбную метеoинфoрмацию в детальнoм прoфессиoнальнoм фoрмате.

Характеристики температуры и влажнoсти вoздуха измеряются на высoте 2 м в тени вдали oт зданий и деревьев.
Скoрoсть ветра измеряется на высoте 10 м (на урoвне рoста челoвека скoрoсть ветра ниже в 1.5-2 раза). Если метеoстанция нахoдится в гoрoде или в лесу, тo скoрoсть ветра занижена на 2-4 м/с пo сравнению с oткрытым местoм. Скoрoсть ветра над акватoриями крупных рек и oзёр, а также на вершинах хoлмoв на 2-5 м/с выше, чем в oбычных услoвиях.
Атмoсфернoе давление в разных тoчках местнoсти мoжет значительнo oтличаться oт давления на метеoстанции, в зависимoсти oт услoвий рельефа (при пoдъёме на 10 м давление пoнижается примернo на 1 мм рт.ст.).